When you browse on this site, cookies collect data to enhance your experience and personalize the content and advertising you see.
Visit our Privacy Policy to learn more. By continuing to use the site, you agree to this use of cookies and data.
  • en France
  • Liste des pays
  • À 7 jours
  • Température de l'eau
  • Carte météo
  • Widgets météo
  • user-avatar
    Se connecter

    Météo par heure à Wigston Magna

    Ce jour, 22 Août, Jeudi

    Heure Température Précipitation Vent Pression Humidité
    00:00 +14°C° 0 mm 4 m/s 759 mmHg 82%
    01:00 +14°C° 0 mm 4 m/s 759 mmHg 84%
    02:00 +13°C° 0 mm 5 m/s 758 mmHg 85%
    03:00 +13°C° 0 mm 5 m/s 758 mmHg 87%
    04:00 +13°C° 0 mm 5 m/s 758 mmHg 87%
    05:00 +13°C° 0 mm 5 m/s 758 mmHg 87%
    06:00 +14°C° 0 mm 5 m/s 758 mmHg 85%
    07:00 +15°C° 0 mm 5 m/s 758 mmHg 83%
    08:00 +16°C° 0 mm 6 m/s 758 mmHg 81%
    09:00 +17°C° 0 mm 6 m/s 758 mmHg 79%
    10:00 +19°C° 0 mm 6 m/s 758 mmHg 77%
    11:00 +20°C° 0 mm 6 m/s 758 mmHg 75%
    12:00 +21°C° 0 mm 7 m/s 759 mmHg 73%
    13:00 +21°C° 0.1 mm 7 m/s 759 mmHg 71%
    14:00 +22°C° 0.1 mm 7 m/s 759 mmHg 69%
    15:00 +22°C° 0.1 mm 7 m/s 759 mmHg 67%
    16:00 +22°C° 0 mm 6 m/s 758 mmHg 70%
    17:00 +21°C° 0 mm 6 m/s 758 mmHg 73%
    18:00 +20°C° 0 mm 5 m/s 758 mmHg 75%
    19:00 +19°C° 0 mm 5 m/s 759 mmHg 78%
    20:00 +19°C° 0 mm 4 m/s 759 mmHg 82%
    21:00 +18°C° 0 mm 4 m/s 760 mmHg 85%
    22:00 +17°C° 0 mm 3 m/s 760 mmHg 87%
    23:00 +17°C° 0 mm 3 m/s 760 mmHg 89%

    Demain, 23 Août, Vendredi

    Heure Température Précipitation Vent Pression Humidité
    00:00 +16°C° 0 mm 3 m/s 760 mmHg 92%
    01:00 +16°C° 0 mm 3 m/s 760 mmHg 93%
    02:00 +16°C° 0 mm 3 m/s 760 mmHg 93%
    03:00 +14°C° 0 mm 3 m/s 759 mmHg 94%
    04:00 +14°C° 0 mm 3 m/s 759 mmHg 94%
    05:00 +15°C° 0 mm 2 m/s 759 mmHg 94%
    06:00 +15°C° 0 mm 2 m/s 759 mmHg 94%
    07:00 +17°C° 0 mm 2 m/s 760 mmHg 88%
    08:00 +18°C° 0 mm 2 m/s 760 mmHg 83%
    09:00 +19°C° 0 mm 2 m/s 760 mmHg 78%
    10:00 +21°C° 0 mm 2 m/s 760 mmHg 74%
    11:00 +22°C° 0 mm 3 m/s 760 mmHg 69%
    12:00 +24°C° 0 mm 3 m/s 759 mmHg 65%
    13:00 +24°C° 0 mm 3 m/s 759 mmHg 63%
    14:00 +25°C° 0 mm 3 m/s 759 mmHg 62%
    15:00 +25°C° 0 mm 3 m/s 759 mmHg 60%
    16:00 +25°C° 0 mm 3 m/s 758 mmHg 63%
    17:00 +24°C° 0 mm 2 m/s 758 mmHg 65%
    18:00 +24°C° 0 mm 2 m/s 758 mmHg 68%
    19:00 +21°C° 0 mm 2 m/s 758 mmHg 71%
    20:00 +20°C° 0 mm 2 m/s 758 mmHg 74%
    21:00 +19°C° 0 mm 2 m/s 758 mmHg 77%
    22:00 +18°C° 0 mm 2 m/s 758 mmHg 78%
    23:00 +17°C° 0 mm 2 m/s 758 mmHg 78%

    Après-demain, 24 Août, Samedi

    Heure Température Précipitation Vent Pression Humidité
    00:00 +17°C° 0 mm 2 m/s 757 mmHg 78%
    01:00 +16°C° 0 mm 2 m/s 757 mmHg 79%
    02:00 +16°C° 0 mm 2 m/s 757 mmHg 80%
    03:00 +15°C° 0 mm 1 m/s 757 mmHg 81%
    04:00 +15°C° 0 mm 1 m/s 757 mmHg 80%
    05:00 +15°C° 0 mm 1 m/s 756 mmHg 80%
    06:00 +15°C° 0 mm 1 m/s 756 mmHg 80%
    07:00 +17°C° 0 mm 2 m/s 756 mmHg 73%
    08:00 +19°C° 0 mm 2 m/s 756 mmHg 67%
    09:00 +21°C° 0 mm 2 m/s 757 mmHg 60%
    10:00 +22°C° 0 mm 3 m/s 756 mmHg 57%
    11:00 +25°C° 0 mm 3 m/s 756 mmHg 53%
    12:00 +26°C° 0 mm 4 m/s 756 mmHg 50%
    13:00 +27°C° 0 mm 4 m/s 755 mmHg 49%
    14:00 +27°C° 0 mm 4 m/s 755 mmHg 49%
    15:00 +27°C° 0 mm 4 m/s 755 mmHg 49%
    16:00 +27°C° 0 mm 3 m/s 755 mmHg 53%
    17:00 +26°C° 0 mm 2 m/s 754 mmHg 57%
    18:00 +25°C° 0 mm 2 m/s 754 mmHg 62%
    19:00 +23°C° 0 mm 2 m/s 754 mmHg 65%
    20:00 +21°C° 0 mm 2 m/s 754 mmHg 69%
    21:00 +20°C° 0 mm 3 m/s 755 mmHg 72%
    22:00 +19°C° 0 mm 3 m/s 754 mmHg 73%
    23:00 +18°C° 0 mm 2 m/s 754 mmHg 74%

    25 Août, Dimanche

    Heure Température Précipitation Vent Pression Humidité
    00:00 +18°C° 0 mm 2 m/s 754 mmHg 76%
    01:00 +18°C° 0 mm 2 m/s 754 mmHg 75%
    02:00 +18°C° 0 mm 2 m/s 754 mmHg 75%
    03:00 +18°C° 0 mm 2 m/s 754 mmHg 74%
    04:00 +18°C° 0 mm 2 m/s 753 mmHg 75%
    05:00 +18°C° 0 mm 2 m/s 753 mmHg 76%
    06:00 +18°C° 0 mm 2 m/s 753 mmHg 76%
    07:00 +19°C° 0 mm 2 m/s 753 mmHg 73%
    08:00 +20°C° 0 mm 2 m/s 754 mmHg 70%
    09:00 +23°C° 0 mm 2 m/s 754 mmHg 67%
    10:00 +24°C° 0 mm 3 m/s 754 mmHg 61%
    11:00 +26°C° 0 mm 3 m/s 754 mmHg 55%
    12:00 +28°C° 0 mm 3 m/s 754 mmHg 48%
    13:00 +29°C° 0 mm 3 m/s 754 mmHg 46%
    14:00 +29°C° 0 mm 3 m/s 754 mmHg 44%
    15:00 +30°C° 0 mm 3 m/s 754 mmHg 42%
    16:00 +29°C° 0 mm 3 m/s 754 mmHg 47%
    17:00 +28°C° 0 mm 3 m/s 754 mmHg 52%
    18:00 +27°C° 0 mm 2 m/s 754 mmHg 57%
    19:00 +25°C° 0 mm 2 m/s 754 mmHg 61%
    20:00 +24°C° 0 mm 3 m/s 754 mmHg 64%
    21:00 +21°C° 0 mm 3 m/s 755 mmHg 68%
    22:00 +21°C° 0 mm 2 m/s 755 mmHg 70%
    23:00 +20°C° 0 mm 2 m/s 755 mmHg 72%

    26 Août, Lundi

    Heure Température Précipitation Vent Pression Humidité
    00:00 +19°C° 0 mm 2 m/s 755 mmHg 73%
    01:00 +19°C° 0 mm 2 m/s 755 mmHg 75%
    02:00 +19°C° 0 mm 1 m/s 754 mmHg 77%
    03:00 +19°C° 0 mm 1 m/s 754 mmHg 79%
    04:00 +19°C° 0 mm 1 m/s 754 mmHg 79%
    05:00 +19°C° 0 mm 1 m/s 754 mmHg 79%
    06:00 +17°C° 0 mm 0 m/s 755 mmHg 80%
    07:00 +21°C° 0 mm 1 m/s 755 mmHg 74%
    08:00 +23°C° 0 mm 1 m/s 755 mmHg 67%
    09:00 +25°C° 0 mm 2 m/s 755 mmHg 61%
    10:00 +26°C° 0 mm 2 m/s 754 mmHg 56%
    11:00 +27°C° 0 mm 2 m/s 754 mmHg 52%
    12:00 +29°C° 0 mm 2 m/s 754 mmHg 47%
    13:00 +29°C° 0 mm 2 m/s 754 mmHg 45%
    14:00 +30°C° 0 mm 2 m/s 754 mmHg 44%
    15:00 +30°C° 0 mm 2 m/s 753 mmHg 42%
    16:00 +30°C° 0 mm 2 m/s 753 mmHg 46%
    17:00 +29°C° 0 mm 2 m/s 753 mmHg 51%
    18:00 +28°C° 0 mm 2 m/s 753 mmHg 56%
    19:00 +26°C° 0 mm 2 m/s 753 mmHg 61%
    20:00 +24°C° 0 mm 3 m/s 753 mmHg 67%
    21:00 +22°C° 0 mm 3 m/s 753 mmHg 72%
    22:00 +21°C° 0 mm 3 m/s 753 mmHg 73%
    23:00 +20°C° 0 mm 2 m/s 753 mmHg 73%

    27 Août, Mardi

    Heure Température Précipitation Vent Pression Humidité
    00:00 +19°C° 0 mm 2 m/s 752 mmHg 74%
    01:00 +18°C° 0 mm 2 m/s 752 mmHg 77%
    02:00 +18°C° 0 mm 2 m/s 752 mmHg 79%
    03:00 +17°C° 0 mm 2 m/s 751 mmHg 82%
    04:00 +17°C° 0 mm 2 m/s 751 mmHg 84%
    05:00 +17°C° 0 mm 2 m/s 751 mmHg 86%
    06:00 +17°C° 0 mm 2 m/s 751 mmHg 88%
    07:00 +19°C° 0 mm 2 m/s 751 mmHg 84%
    08:00 +20°C° 0 mm 3 m/s 751 mmHg 79%
    09:00 +22°C° 0 mm 3 m/s 751 mmHg 74%
    10:00 +25°C° 0.1 mm 3 m/s 750 mmHg 70%
    11:00 +26°C° 0.1 mm 2 m/s 750 mmHg 66%
    12:00 +27°C° 0.1 mm 2 m/s 750 mmHg 61%
    13:00 +28°C° 0.4 mm 2 m/s 750 mmHg 56%
    14:00 +29°C° 0.4 mm 1 m/s 749 mmHg 51%
    15:00 +29°C° 0.4 mm 1 m/s 749 mmHg 46%
    16:00 +28°C° 0.4 mm 1 m/s 749 mmHg 53%
    17:00 +27°C° 0.4 mm 2 m/s 749 mmHg 60%
    18:00 +26°C° 0.4 mm 2 m/s 749 mmHg 67%
    19:00 +24°C° 1.9 mm 3 m/s 749 mmHg 74%
    20:00 +21°C° 1.9 mm 3 m/s 749 mmHg 81%
    21:00 +20°C° 1.9 mm 3 m/s 749 mmHg 87%
    22:00 +19°C° 0.3 mm 3 m/s 749 mmHg 89%
    23:00 +19°C° 0.3 mm 2 m/s 749 mmHg 90%
    Voir plus